OpenBCM V1.13 (Linux)

Packet Radio Mailbox

DB0FHN

[JN59NK Nuernberg]

 Login: GUEST





  
LU5HK  > KEPLER   11.08.04 18:48l 750 Lines 20427 Bytes #999 (0) @ AMSAT
BID : 1A0055LU5HK
Read: GUEST
Subj: Kepler Amsat 05/08/2004
Path: DB0FHN<DB0MRW<OK0PKL<OK0PPL<DB0RES<ON0AR<7M3TJZ<ON4HU<ON0BEL<KP4IG<
      LU4HB<LU4HB<LU3HE<LU2HT
Sent: 040809/2336Z @:LU2HT.5850.RT.ARG.SOAM #:38935 [RIO TERCERO] FBB7.00i
From: LU5HK@LU2HT.5850.RT.ARG.SOAM
To  : KEPLER@LUNET


<!DOCTYPE HTML PUBLIC "-//W3C//DTD HTML 4.0 Transitional//EN">
<!-- saved from url=(0049)http://amsat.org/amsat/ftp/keps/current/amsat.all -->
<HTML><HEAD>
<META http-equiv=Content-Type content="text/html; charset=iso-8859-1">
<META content="MSHTML 6.00.2600.0" name=GENERATOR></HEAD>
<BODY><PRE>SB KEPS @ AMSAT  $ORB04218.O
Orbital Elements  04218.OSCAR

HR AMSAT ORBITAL ELEMENTS FOR OSCAR SATELLITES
FROM WA5QGD FORT WORTH,TX August 5, 2004
SEND SUBSCRIBE/UNSUBSCRIBE TO majordomo@amsat.org ONLY
BID: ORB04218.O
TO ALL RADIO AMATEURS BT

Satellite: AO-07
Catalog number: 07530
Epoch time:      04218.75695346
Element set:     304
Inclination:      101.6780 deg
RA of node:       264.7116 deg
Eccentricity:    0.0012199
Arg of perigee:   125.3896 deg
Mean anomaly:     234.8317 deg
Mean motion:   12.53568946 rev/day
Decay rate:       -2.9e-07 rev/day^2
Epoch rev:           36012
Checksum:              307

Satellite: AO-10
Catalog number: 14129
Epoch time:      04217.70007978
Element set:    0087
Inclination:      026.5301 deg
RA of node:       078.3904 deg
Eccentricity:    0.6019887
Arg of perigee:   112.9190 deg
Mean anomaly:     319.2548 deg
Mean motion:   02.05868939 rev/day
Decay rate:      -1.36e-06 rev/day^2
Epoch rev:           15901
Checksum:              314

Satellite: UO-11
Catalog number: 14781
Epoch time:      04217.74824766
Element set:     543
Inclination:       98.1762 deg
RA of node:       203.4063 deg
Eccentricity:    0.0008103
Arg of perigee:   300.2939 deg
Mean anomaly:      59.7461 deg
Mean motion:   14.78963577 rev/day
Decay rate:       4.01e-06 rev/day^2
Epoch rev:            9502
Checksum:              302

Satellite: RS-10/11
Catalog number: 18129
Epoch time:      04218.20273496
Element set:     479
Inclination:       82.9248 deg
RA of node:       111.8790 deg
Eccentricity:    0.0011373
Arg of perigee:   177.6037 deg
Mean anomaly:     182.5172 deg
Mean motion:   13.72742288 rev/day
Decay rate:        8.0e-07 rev/day^2
Epoch rev:           85772
Checksum:              316

Satellite: FO-20
Catalog number: 20480
Epoch time:      04217.71354766
Element set:    0693
Inclination:      099.0427 deg
RA of node:       085.9840 deg
Eccentricity:    0.0539634
Arg of perigee:   236.9201 deg
Mean anomaly:     117.8985 deg
Mean motion:   12.83341027 rev/day
Decay rate:       -4.8e-07 rev/day^2
Epoch rev:           67890
Checksum:              329

Satellite: RS-12/13
Catalog number: 21089
Epoch time:      04217.86375088
Element set:    0732
Inclination:      082.9243 deg
RA of node:       145.6511 deg
Eccentricity:    0.0027621
Arg of perigee:   239.7883 deg
Mean anomaly:     120.0536 deg
Mean motion:   13.74439235 rev/day
Decay rate:        2.0e-07 rev/day^2
Epoch rev:           67704
Checksum:              302

Satellite: RS-15
Catalog number: 23439
Epoch time:      04217.59777171
Element set:    0816
Inclination:      064.8161 deg
RA of node:       259.5423 deg
Eccentricity:    0.0153879
Arg of perigee:   012.6927 deg
Mean anomaly:     347.7804 deg
Mean motion:   11.27549562 rev/day
Decay rate:       -1.8e-07 rev/day^2
Epoch rev:           39569
Checksum:              344

Satellite: FO-29
Catalog number: 24278
Epoch time:      04217.83201233
Element set:     780
Inclination:       98.5874 deg
RA of node:       303.4277 deg
Eccentricity:    0.0349929
Arg of perigee:   275.7083 deg
Mean anomaly:      80.4263 deg
Mean motion:   13.52900752 rev/day
Decay rate:        1.1e-07 rev/day^2
Epoch rev:           39341
Checksum:              310

Satellite: SO-33
Catalog number: 25509
Epoch time:      04217.83145223
Element set:     166
Inclination:       31.4340 deg
RA of node:        20.5652 deg
Eccentricity:    0.0356788
Arg of perigee:   281.1802 deg
Mean anomaly:      74.8961 deg
Mean motion:   14.27855508 rev/day
Decay rate:        8.2e-07 rev/day^2
Epoch rev:           30157
Checksum:              293

Satellite: AO-40
Catalog number: 26609
Epoch time:      04216.42809529
Element set:     420
Inclination:        9.9932 deg
RA of node:       348.6673 deg
Eccentricity:    0.7974886
Arg of perigee:   307.5665 deg
Mean anomaly:       4.2789 deg
Mean motion:    1.25585380 rev/day
Decay rate:      -3.14e-06 rev/day^2
Epoch rev:            1726
Checksum:              337

>/EX
SB KEPS @ AMSAT  $ORB04218.D
Orbital Elements  04218.MICROS

HR AMSAT ORBITAL ELEMENTS FOR THE MICROSATS
FROM WA5QGD FORT WORTH,TX August 5, 2004
SEND SUBSCRIBE/UNSUBSCRIBE TO majordomo@amsat.org ONLY
BID: ORB04218.D
TO ALL RADIO AMATEURS BT

Satellite: UO-14
Catalog number: 20437
Epoch time:      04218.02447029
Element set:     559
Inclination:       98.2077 deg
RA of node:       239.2348 deg
Eccentricity:    0.0011772
Arg of perigee:    57.0565 deg
Mean anomaly:     303.1761 deg
Mean motion:   14.31364889 rev/day
Decay rate:       -3.7e-07 rev/day^2
Epoch rev:           75880
Checksum:              311

Satellite: AO-16
Catalog number: 20439
Epoch time:      04218.71565530
Element set:     247
Inclination:       98.2440 deg
RA of node:       254.3475 deg
Eccentricity:    0.0012050
Arg of perigee:    61.6971 deg
Mean anomaly:     298.5424 deg
Mean motion:   14.31622346 rev/day
Decay rate:        2.5e-07 rev/day^2
Epoch rev:           75895
Checksum:              298

Satellite: WO-18
Catalog number: 20441
Epoch time:      04218.80669411
Element set:     432
Inclination:       98.2556 deg
RA of node:       258.4194 deg
Eccentricity:    0.0012523
Arg of perigee:    64.8765 deg
Mean anomaly:     295.3807 deg
Mean motion:   14.31697913 rev/day
Decay rate:       -7.6e-07 rev/day^2
Epoch rev:           75902
Checksum:              322

Satellite: LO-19
Catalog number: 20442
Epoch time:      04218.72277183
Element set:     205
Inclination:       98.2715 deg
RA of node:       262.3371 deg
Eccentricity:    0.0012993
Arg of perigee:    61.5573 deg
Mean anomaly:     298.6919 deg
Mean motion:   14.31868938 rev/day
Decay rate:        4.5e-07 rev/day^2
Epoch rev:           75907
Checksum:              331

Satellite: UO-22
Catalog number: 21575
Epoch time:      04218.69070319
Element set:     170
Inclination:       98.1959 deg
RA of node:       190.7639 deg
Eccentricity:    0.0006782
Arg of perigee:   328.5911 deg
Mean anomaly:      31.4859 deg
Mean motion:   14.39403572 rev/day
Decay rate:        3.4e-07 rev/day^2
Epoch rev:           68511
Checksum:              317

Satellite: KO-23
Catalog number: 22077
Epoch time:      04217.96303014
Element set:    0370
Inclination:      066.0841 deg
RA of node:       088.7012 deg
Eccentricity:    0.0006818
Arg of perigee:   330.8236 deg
Mean anomaly:     029.2400 deg
Mean motion:   12.86424672 rev/day
Decay rate:       -3.7e-07 rev/day^2
Epoch rev:           56291
Checksum:              276

Satellite: AO-27
Catalog number: 22825
Epoch time:      04218.22234574
Element set:     909
Inclination:       98.2415 deg
RA of node:       224.6607 deg
Eccentricity:    0.0009584
Arg of perigee:   117.3568 deg
Mean anomaly:     242.8605 deg
Mean motion:   14.29078447 rev/day
Decay rate:        1.3e-07 rev/day^2
Epoch rev:           56609
Checksum:              317

Satellite: IO-26
Catalog number: 22826
Epoch time:      04218.58666389
Element set:     596
Inclination:       98.2428 deg
RA of node:       226.2845 deg
Eccentricity:    0.0009815
Arg of perigee:   112.3969 deg
Mean anomaly:     247.8253 deg
Mean motion:   14.29314951 rev/day
Decay rate:        5.6e-07 rev/day^2
Epoch rev:           56620
Checksum:              341

Satellite: KO-25
Catalog number: 22828
Epoch time:      04218.65377266
Element set:     844
Inclination:       98.2328 deg
RA of node:       226.5865 deg
Eccentricity:    0.0011004
Arg of perigee:    92.4783 deg
Mean anomaly:     267.7627 deg
Mean motion:   14.29635198 rev/day
Decay rate:       -8.1e-07 rev/day^2
Epoch rev:           53443
Checksum:              332

Satellite: TO-31
Catalog number: 25396
Epoch time:      04217.93114184
Element set:    0094
Inclination:      098.5724 deg
RA of node:       287.9963 deg
Eccentricity:    0.0003267
Arg of perigee:   040.5591 deg
Mean anomaly:     319.5832 deg
Mean motion:   14.23628517 rev/day
Decay rate:       -4.3e-07 rev/day^2
Epoch rev:           31541
Checksum:              311

Satellite: GO-32
Catalog number: 25397
Epoch time:      04218.79915503
Element set:     529
Inclination:       98.5643 deg
RA of node:       286.9319 deg
Eccentricity:    0.0001842
Arg of perigee:    68.1259 deg
Mean anomaly:     292.0115 deg
Mean motion:   14.23048468 rev/day
Decay rate:       1.43e-06 rev/day^2
Epoch rev:           31547
Checksum:              318

Satellite: UO-36
Catalog number: 25693
Epoch time:      04218.85504200
Element set:     324
Inclination:       64.5579 deg
RA of node:       172.0268 deg
Eccentricity:    0.0048547
Arg of perigee:   252.5132 deg
Mean anomaly:     107.0653 deg
Mean motion:   14.78367717 rev/day
Decay rate:       1.18e-06 rev/day^2
Epoch rev:           28520
Checksum:              302

Satellite: SO-41
Catalog number: 26545
Epoch time:      04218.00781602
Element set:     842
Inclination:       64.5568 deg
RA of node:       191.2069 deg
Eccentricity:    0.0013321
Arg of perigee:     9.2236 deg
Mean anomaly:     350.9086 deg
Mean motion:   14.79819683 rev/day
Decay rate:       -6.8e-07 rev/day^2
Epoch rev:           20813
Checksum:              301

